| time (UTC) | temp F | wind direction | speed knots | gust knots | rain 1hr in | rain 24hr in | rain mn in | humidity % | barometer mb |
| 20260503211040 | 65 | 195 | 5.2 | 12.2 | 0.00 | 0.00 | 0.00 | 56 | 1015.7 |
| 20260503210017 | 65 | 212 | 4.3 | 9.6 | 0.00 | 0.00 | 0.00 | 58 | 1015.7 |
| 20260503205058 | 64 | 244 | 3.5 | 10.4 | 0.00 | 0.00 | 0.00 | 58 | 1015.7 |
| 20260503204021 | 64 | 215 | 3.5 | 11.3 | 0.00 | 0.00 | 0.00 | 59 | 1015.8 |
| 20260503203035 | 63 | 200 | 4.3 | 9.6 | 0.00 | 0.00 | 0.00 | 59 | 1015.9 |
| 20260503202018 | 63 | 224 | 3.5 | 8.7 | 0.00 | 0.00 | 0.00 | 61 | 1015.9 |
| 20260503201017 | 63 | 244 | 3.5 | 8.7 | 0.00 | 0.00 | 0.00 | 61 | 1015.9 |
| 20260503200026 | 63 | 218 | 4.3 | 9.6 | 0.00 | 0.00 | 0.00 | 59 | 1015.9 |
| 20260503195017 | 63 | 244 | 3.5 | 7.0 | 0.00 | 0.00 | 0.00 | 58 | 1016.0 |
| 20260503194026 | 63 | 240 | 3.5 | 7.8 | 0.00 | 0.00 | 0.00 | 58 | 1016.0 |
| 20260503193021 | 64 | 241 | 2.6 | 6.1 | 0.00 | 0.00 | 0.00 | 57 | 1016.2 |
| 20260503192037 | 64 | 227 | 3.5 | 9.6 | 0.00 | 0.00 | 0.00 | 58 | 1016.1 |
| 20260503191024 | 63 | 243 | 3.5 | 9.6 | 0.00 | 0.00 | 0.00 | 59 | 1016.1 |
| 20260503190020 | 63 | 254 | 2.6 | 5.2 | 0.00 | 0.00 | 0.00 | 58 | 1016.1 |
| 20260503185017 | 64 | 191 | 3.5 | 7.0 | 0.00 | 0.00 | 0.00 | 57 | 1016.0 |
| 20260503184019 | 63 | 215 | 2.6 | 6.1 | 0.00 | 0.00 | 0.00 | 61 | 1016.1 |
| 20260503183016 | 63 | 228 | 2.6 | 6.1 | 0.00 | 0.00 | 0.00 | 61 | 1016.1 |
| 20260503182017 | 62 | 192 | 4.3 | 10.4 | 0.00 | 0.00 | 0.00 | 64 | 1016.3 |
| 20260503181016 | 63 | 202 | 4.3 | 8.7 | 0.00 | 0.00 | 0.00 | 62 | 1016.1 |
| 20260503180045 | 63 | 246 | 2.6 | 7.8 | 0.00 | 0.00 | 0.00 | 63 | 1016.0 |
| 20260503175035 | 61 | 235 | 2.6 | 6.1 | 0.00 | 0.00 | 0.00 | 66 | 1016.0 |
| 20260503174038 | 60 | 239 | 3.5 | 7.0 | 0.00 | 0.00 | 0.00 | 69 | 1016.0 |
| 20260503173019 | 60 | 254 | 2.6 | 6.1 | 0.00 | 0.00 | 0.00 | 71 | 1016.0 |
| 20260503172036 | 59 | 226 | 2.6 | 7.0 | 0.00 | 0.00 | 0.00 | 72 | 1016.1 |
| 20260503171017 | 59 | 242 | 2.6 | 6.1 | 0.00 | 0.00 | 0.00 | 73 | 1016.1 |
| 20260503131037 | 56 | 154 | 0.0 | 1.7 | 0.00 | 0.00 | 0.00 | 77 | 1014.2 |
| 20260503081016 | 56 | 321 | 0.9 | 3.5 | 0.00 | 0.00 | 0.00 | 76 | 1015.0 |
| 20260503072021 | 56 | 288 | 0.9 | 1.7 | 0.00 | 0.00 | 0.00 | 75 | 1015.2 |
| 20260503071039 | 56 | 313 | 0.9 | 1.7 | 0.00 | 0.00 | 0.00 | 76 | 1015.1 |
| 20260503055039 | 56 | 304 | 2.6 | 7.0 | 0.00 | 0.00 | 0.00 | 75 | 1015.5 |
| 20260503054020 | 56 | 249 | 0.9 | 2.6 | 0.00 | 0.00 | 0.00 | 75 | 1015.5 |
| 20260503053015 | 56 | 258 | 0.9 | 3.5 | 0.00 | 0.00 | 0.00 | 75 | 1015.6 |
| 20260503052020 | 56 | 287 | 1.7 | 4.3 | 0.00 | 0.00 | 0.00 | 74 | 1015.7 |
| 20260503051016 | 56 | 275 | 1.7 | 3.5 | 0.00 | 0.00 | 0.00 | 75 | 1015.6 |
| 20260503050037 | 56 | 249 | 1.7 | 3.5 | 0.00 | 0.00 | 0.00 | 75 | 1015.5 |
| 20260503045020 | 56 | 270 | 1.7 | 3.5 | 0.00 | 0.00 | 0.00 | 74 | 1015.5 |
| 20260503044017 | 56 | 248 | 1.7 | 4.3 | 0.00 | 0.00 | 0.00 | 74 | 1015.5 |
| 20260503043022 | 56 | 252 | 1.7 | 5.2 | 0.00 | 0.00 | 0.00 | 74 | 1015.6 |
| 20260503042017 | 57 | 290 | 1.7 | 5.2 | 0.00 | 0.00 | 0.00 | 74 | 1015.3 |
| 20260503041020 | 57 | 273 | 2.6 | 4.3 | 0.00 | 0.00 | 0.00 | 74 | 1015.2 |
| 20260503040017 | 57 | 279 | 1.7 | 6.1 | 0.00 | 0.00 | 0.00 | 75 | 1015.1 |
| 20260503035018 | 57 | 271 | 2.6 | 5.2 | 0.00 | 0.00 | 0.00 | 74 | 1015.2 |
| 20260503034038 | 57 | 247 | 2.6 | 5.2 | 0.00 | 0.00 | 0.00 | 73 | 1015.2 |
| 20260503033022 | 57 | 244 | 1.7 | 3.5 | 0.00 | 0.00 | 0.00 | 73 | 1015.1 |
| 20260503032019 | 57 | 251 | 2.6 | 5.2 | 0.00 | 0.00 | 0.00 | 73 | 1014.9 |
| 20260503031038 | 57 | 260 | 0.9 | 3.5 | 0.00 | 0.00 | 0.00 | 73 | 1014.8 |
| 20260503030037 | 57 | 247 | 2.6 | 7.8 | 0.00 | 0.00 | 0.00 | 72 | 1014.6 |
| 20260503025024 | 57 | 259 | 2.6 | 7.0 | 0.00 | 0.00 | 0.00 | 72 | 1014.5 |
| 20260503024045 | 57 | 276 | 2.6 | 7.8 | 0.00 | 0.00 | 0.00 | 71 | 1014.4 |
| 20260503023022 | 57 | 252 | 2.6 | 6.1 | 0.00 | 0.00 | 0.00 | 71 | 1014.4 |
| 20260503022023 | 58 | 251 | 4.3 | 9.6 | 0.00 | 0.00 | 0.00 | 70 | 1014.4 |
| 20260503021026 | 58 | 248 | 3.5 | 8.7 | 0.00 | 0.00 | 0.00 | 69 | 1014.5 |
| 20260503020017 | 59 | 270 | 2.6 | 7.0 | 0.00 | 0.00 | 0.00 | 68 | 1014.6 |
| 20260503015018 | 59 | 254 | 3.5 | 7.8 | 0.00 | 0.00 | 0.00 | 68 | 1014.7 |
| 20260503014018 | 59 | 247 | 3.5 | 8.7 | 0.00 | 0.00 | 0.00 | 67 | 1014.5 |
| 20260503013021 | 59 | 275 | 2.6 | 6.1 | 0.00 | 0.00 | 0.00 | 67 | 1014.7 |
| 20260503012018 | 60 | 252 | 2.6 | 7.0 | 0.00 | 0.00 | 0.00 | 66 | 1014.6 |
| 20260503011039 | 60 | 248 | 3.5 | 7.8 | 0.00 | 0.00 | 0.00 | 66 | 1014.8 |
| 20260503010036 | 60 | 250 | 2.6 | 6.1 | 0.00 | 0.00 | 0.00 | 66 | 1014.7 |
| 20260503005017 | 60 | 264 | 3.5 | 9.6 | 0.00 | 0.00 | 0.00 | 65 | 1014.6 |
| 20260503004019 | 61 | 244 | 3.5 | 7.0 | 0.00 | 0.00 | 0.00 | 65 | 1014.6 |
| 20260503003020 | 61 | 255 | 3.5 | 9.6 | 0.00 | 0.00 | 0.00 | 65 | 1014.7 |
| 20260503002017 | 61 | 271 | 4.3 | 13.0 | 0.00 | 0.00 | 0.00 | 65 | 1014.8 |
| 20260503001018 | 61 | 269 | 3.5 | 8.7 | 0.00 | 0.00 | 0.00 | 64 | 1014.8 |
| 20260503000019 | 62 | 287 | 4.3 | 11.3 | 0.00 | 0.00 | 0.00 | 63 | 1014.7 |
| 20260502235016 | 62 | 264 | 3.5 | 7.0 | 0.00 | 0.00 | 0.00 | 62 | 1014.8 |
| 20260502234019 | 63 | 252 | 3.5 | 8.7 | 0.00 | 0.00 | 0.00 | 62 | 1014.8 |
| 20260502233040 | 63 | 264 | 4.3 | 8.7 | 0.00 | 0.00 | 0.00 | 62 | 1015.0 |
| 20260502232016 | 64 | 256 | 4.3 | 9.6 | 0.00 | 0.00 | 0.00 | 62 | 1015.1 |
| 20260502231019 | 63 | 201 | 3.5 | 8.7 | 0.00 | 0.00 | 0.00 | 62 | 1015.1 |
| 20260502230020 | 64 | 253 | 2.6 | 5.2 | 0.00 | 0.00 | 0.00 | 62 | 1015.4 |
| 20260502225017 | 63 | 232 | 3.5 | 7.8 | 0.00 | 0.00 | 0.00 | 64 | 1015.6 |
| 20260502224018 | 63 | 258 | 2.6 | 7.0 | 0.00 | 0.00 | 0.00 | 64 | 1015.6 |
| 20260502223019 | 62 | 243 | 3.5 | 7.8 | 0.00 | 0.00 | 0.00 | 64 | 1015.7 |
| 20260502222015 | 63 | 258 | 4.3 | 8.7 | 0.00 | 0.00 | 0.00 | 64 | 1016.0 |
| 20260502221016 | 63 | 246 | 2.6 | 6.1 | 0.00 | 0.00 | 0.00 | 65 | 1016.1 |
| 20260502220040 | 62 | 249 | 3.5 | 8.7 | 0.00 | 0.00 | 0.00 | 64 | 1016.1 |
| 20260502215016 | 63 | 256 | 3.5 | 7.0 | 0.00 | 0.00 | 0.00 | 64 | 1016.2 |
| 20260502214017 | 63 | 201 | 3.5 | 7.8 | 0.00 | 0.00 | 0.00 | 63 | 1016.3 |
| 20260502213018 | 63 | 222 | 3.5 | 8.7 | 0.00 | 0.00 | 0.00 | 64 | 1016.3 |
| 20260502212021 | 62 | 221 | 3.5 | 7.8 | 0.00 | 0.00 | 0.00 | 64 | 1016.4 |